Location: Bastelaar
(51.0950°N, 3.8602°E)
Time: 16:07:11
(UTC+00:00)

Cosmos 2369 Rocket - Pass Details

Date: 18 November 2025
Orbit: 826 x 853 km, 71.0° (Epoch: 12 December)

Event Time Altitude Azimuth Distance (km) Brightness Sun altitude
Rises 19:29:00 0° 208° (SSW) 3,360 5.5 -33.6°
Reaches altitude 10° 19:31:25 10° 208° (SSW) 2,434 4.7 -33.9°
Enters shadow 19:32:09 14° 208° (SSW) 2,160 4.4 -34.1°
